Miscellaneous Local Product
Issued by NWS North Platte, NE

Home | Current Version | Previous Version | Text Only | Print | Product List | Glossary On
Versions: 1 2 3 4 5 6 7 8 9 10 11 12 13 14 15 16 17 18 19 20 21 22 23 24 25 26 27 28 29 30 31 32 33 34 35 36 37 38 39 40 41 42 43 44 45 46 47 48 49 50
678
AXUS43 KLBF 261210
MISLBF


WESTERN AND NORTH CENTRAL NEBRASKA HOURLY WEATHER ROUNDUP
NATIONAL WEATHER SERVICE NORTH PLATTE NE
600 AM CST SUN FEB 26 2017

NOTE: "FAIR" INDICATES FEW OR NO CLOUDS BELOW 12,000 FEET WITH NO
SIGNIFICANT WEATHER AND/OR OBSTRUCTIONS TO VISIBILITY.

NOTE: STATIONS NOT REPORTING VARIABLES SUCH AS SKY/WEATHER OR
PRESSURE ARE PROVIDED BY RAWS AND APRS NETWORKS AND ARE NOT UNDER
NATIONAL WEATHER SERVICE QUALITY CONTROL.

...OBSERVATIONS IN AND NEAR THE EASTERN PANHANDLE OF NEBRASKA...

CITY           SKY/WX    TMP DP  RH WIND       PRES   REMARKS
PINE RIDGE     CLEAR     14   4  64 SW10      29.80R WCI   1
CHADRON        CLEAR      6  -2  69 W6        29.81R WCI  -4
ALLIANCE       CLEAR      7   0  73 W13       29.78S WCI  -9
SIDNEY         CLEAR     13   3  64 W13       29.82R WCI  -2
CRESCENT LAKE    N/A     14   4  65 NW9         N/A  WCI   2
$$

...OBSERVATIONS IN NORTHERN NEBRASKA AND FAR SOUTHERN SOUTH DAKOTA...

CITY           SKY/WX    TMP DP  RH WIND       PRES   REMARKS
WINNER         FAIR      21  14  74 SW7       29.78R WCI  12
VALENTINE      CLEAR      9   2  73 W9        29.80R WCI  -4
THEDFORD       CLEAR     16   8  70 W10       29.81S WCI   3
AINSWORTH      CLEAR     13   8  80 W3        29.80R
O`NEILL        CLEAR     18  10  71 W9        29.81R WCI   6
ORD            CLEAR     21   9  59 W9        29.83R WCI  11
BROKEN BOW     CLEAR     20  10  65 W13       29.83R WCI   7
VALENTINE NWR    N/A     16   8  69 W9          N/A  WCI   5
BUTTE            N/A     13   8  81 W5          N/A  WCI   5
HALSEY           N/A     18   7  60 W7G16       N/A  WCI   9
CHAMBERS         N/A     18   7  60 N3          N/A
EWING            N/A     16  10  76 W9          N/A  WCI   5
$$

...OBSERVATIONS IN SOUTHWEST NEBRASKA AND FAR NORTHEAST COLORADO...

CITY           SKY/WX    TMP DP  RH WIND       PRES   REMARKS
HOLYOKE        FAIR      19  12  73 W8        29.85S WCI   9
IMPERIAL       CLEAR     20  12  71 W7        29.87R WCI  11
OGALLALA       CLEAR     17   9  70 W7        29.85S WCI   7
NORTH PLATTE   CLEAR     12   7  80 NW6       29.86R WCI   3
MCCOOK         CLEAR     18  14  84 SW6       29.90R WCI  10
LEXINGTON      CLEAR     22  13  70 W8        29.87R WCI  12
STAPLETON        N/A     15   9  76 CALM        N/A
GOTHENBURG       N/A     24  12  59 W5          N/A  WCI  18
CALLAWAY         N/A     19  11  69 NW8         N/A  WCI   9
$$

...OBSERVATIONS IN CENTRAL LINCOLN COUNTY AREA...

CITY           SKY/WX    TMP DP  RH WIND       PRES   REMARKS
N.P. AIRPORT   CLEAR     12   7  80 NW6       29.86R WCI   3
N.P. DOWNTOWN    N/A     18  11  74 W3          N/A
N.P. SOUTHEAST   N/A     18  10  69 CALM        N/A
N.P. HILLCREST   N/A     17  11  78 NW3         N/A
$$

...SOME OBSERVATIONS FROM AROUND THE REGION...

CITY           SKY/WX    TMP DP  RH WIND       PRES   REMARKS
LARAMIE        CLOUDY     6  -4  63 SW15      29.73R WCI -12
CHEYENNE       CLOUDY    13  -3  49 W14       29.74S WCI  -2
DENVER         PTCLDY    15   5  64 SE7       29.78R WCI   5
AKRON          CLEAR     15   6  67 N5        29.82R WCI   8
SCOTTSBLUFF    CLOUDY     8   1  73 W10       29.82S WCI  -6
RAPID CITY     CLEAR     16   9  74 W5        29.74R WCI   9
BISMARCK       CLOUDY    14   8  77 NW3       29.78R
PIERRE         CLEAR     20  17  88 W5        29.76R WCI  13
SIOUX FALLS    PTCLDY    17  14  88 SW3       29.76S
OMAHA          MOCLDY    33  20  58 SW7       29.87R WCI  27
GRAND ISLAND   CLEAR     28  17  63 W10       29.87R WCI  19
KANSAS CITY    CLOUDY    35  16  45 SW10      30.00R WCI  27
WICHITA        MOCLDY    34  21  59 SE9       29.93F WCI  27
OKLAHOMA CITY  CLOUDY    38  24  57 S14       29.92R WCI  30
DALLAS         PTCLDY    41  30  65 SE7       29.96S
AMARILLO       PTCLDY    33  25  72 W6        29.80F WCI  28
DODGE CITY     PTCLDY    26  16  65 N6        29.85R WCI  19
HAYS           CLEAR     20  13  74 NE3       29.91R
GOODLAND       CLEAR     11   5  77 W7        29.85S WCI   0
$$




USA.gov is the U.S. government's official web portal to all federal, state and local government web resources and services.